Forks, WA

7:37 PM PST on January 23, 2017 (GMT -0800)
Quillayute

Weather History for KUIL - July, 2013

Change the Weather History Date:

Friday, July 26, 2013

  Actual Average Record
Temperature  
Mean Temperature 58 °F 60 °F  
Max Temperature 70 °F 68 °F 85 °F (1998)
Min Temperature 46 °F 51 °F 39 °F (1985)
Degree Days  
Heating Degree Days 7 6  
Month to date heating degree days 91 170  
Since 1 June heating degree days 271 464  
Since 1 July heating degree days 91 170  
Cooling Degree Days 0 0  
Month to date cooling degree days 6 0  
Year to date cooling degree days 16 4  
Since 1 June cooling degree days 13 3  
Growing Degree Days 8 (Base 50)    
Moisture  
Dew Point 48 °F    
Average Humidity 67    
Maximum Humidity 86    
Minimum Humidity 47    
Precipitation  
Precipitation 0.00 in 0.06 in 0.61 in (1970)
Month to date precipitation T 1.72  
Year to date precipitation 58.80 53.97  
Sea Level Pressure  
Sea Level Pressure 30.19 in    
Wind  
Wind Speed 5 mph (NW)    
Max Wind Speed 16 mph    
Max Gust Speed 22 mph    
Visibility 7 miles    
Events      
T = Trace of Precipitation, MM = Missing Value Source: NWS Daily Summary

Daily Weather History Graph

Daily Weather History Graph

Search for Another Location

Airport or City:

Trip Planner

Search our weather history database for the weather conditions in past years. The results will help you decide how hot, cold, wet, or windy it might be!

Date:

Astronomy

Jul. 26, 2013 Rise Set
Actual Time 5:47 AM PDT 9:01 PM PDT
Civil Twilight 5:10 AM PDT 9:38 PM PDT
Nautical Twilight 4:21 AM PDT 10:26 PM PDT
Astronomical Twilight 3:19 AM PDT 11:28 PM PDT
Moon 10:49 PM PDT (7/26) 10:56 AM PDT (7/26)
Length of Visible Light 16h 28m
Length of Day
15h 13m
Waning Gibbous, 79% of the Moon is Illuminated
Jul 26
Waning Gibbous
Jul 29
Last Quarter
Aug 6
New
Aug 14
First Quarter
Aug 20
Full

Hourly Weather History & Observations

Time (PDT) Temp. Dew Point Humidity Pressure Visibility Wind Dir Wind Speed Gust Speed Precip Events Conditions
12:53 AM 51.1 °F 45.0 °F 80% 30.15 in 8.0 mi Calm Calm - N/A   Clear
1:53 AM 48.9 °F 44.1 °F 83% 30.16 in 9.0 mi Calm Calm - N/A   Clear
2:53 AM 48.9 °F 43.0 °F 80% 30.16 in 9.0 mi Calm Calm - N/A   Clear
3:53 AM 46.9 °F 42.1 °F 83% 30.17 in 6.0 mi Calm Calm - N/A   Haze
4:53 AM 46.9 °F 42.1 °F 83% 30.17 in 9.0 mi Calm Calm - N/A   Partly Cloudy
5:50 AM 46.4 °F 42.8 °F 87% 30.16 in 5.0 mi Calm Calm - N/A   Scattered Clouds
5:53 AM 46.0 °F 42.1 °F 86% 30.16 in 4.0 mi Calm Calm - N/A   Mostly Cloudy
6:53 AM 48.9 °F 44.1 °F 83% 30.18 in 7.0 mi Calm Calm - N/A   Mostly Cloudy
7:53 AM 51.1 °F 46.9 °F 86% 30.19 in 6.0 mi Calm Calm - N/A   Overcast
8:21 AM 53.6 °F 48.2 °F 82% 30.19 in 6.0 mi Calm Calm - N/A   Haze
8:53 AM 57.9 °F 52.0 °F 81% 30.20 in 6.0 mi Calm Calm - N/A   Haze
9:09 AM 59.0 °F 51.8 °F 77% 30.20 in 6.0 mi Calm Calm - N/A   Haze
9:53 AM 64.9 °F 52.0 °F 63% 30.20 in 7.0 mi NW 4.6 mph - N/A   Clear
10:53 AM 66.0 °F 52.0 °F 60% 30.21 in 8.0 mi WNW 4.6 mph - N/A   Clear
11:53 AM 68.0 °F 51.1 °F 55% 30.21 in 8.0 mi WNW 9.2 mph - N/A   Clear
12:53 PM 69.1 °F 48.9 °F 49% 30.21 in 9.0 mi NW 10.4 mph - N/A   Clear
1:53 PM 69.1 °F 50.0 °F 51% 30.21 in 9.0 mi NW 9.2 mph 16.1 mph N/A   Clear
2:53 PM 68.0 °F 50.0 °F 52% 30.22 in 9.0 mi WNW 12.7 mph 18.4 mph N/A   Clear
3:53 PM 69.1 °F 48.9 °F 49% 30.22 in 9.0 mi NW 11.5 mph 17.3 mph N/A   Clear
4:53 PM 66.9 °F 50.0 °F 54% 30.22 in 8.0 mi NW 11.5 mph - N/A   Clear
5:53 PM 66.0 °F 51.1 °F 59% 30.21 in 8.0 mi NNW 9.2 mph - N/A   Clear
6:53 PM 64.0 °F 51.1 °F 63% 30.20 in 8.0 mi NW 9.2 mph 16.1 mph N/A   Clear
7:53 PM 62.1 °F 50.0 °F 65% 30.20 in 7.0 mi NW 10.4 mph - N/A   Clear
8:53 PM 57.0 °F 48.9 °F 74% 30.19 in 7.0 mi WNW 4.6 mph - N/A   Clear
9:53 PM 55.9 °F 48.9 °F 77% 30.20 in 8.0 mi Calm Calm - N/A   Clear
10:53 PM 53.1 °F 48.0 °F 83% 30.20 in 7.0 mi Calm Calm - N/A   Clear
11:53 PM 52.0 °F 46.0 °F 80% 30.19 in 7.0 mi Calm Calm - N/A   Clear